• In Belarus
  • List of Countries
  • For 7 days
  • Water Temperature
  • Satellite Maps
  • Weather Map
  • Weather Widgets
  • user-avatar
    Login

    Hourly Weather Tarija

    Today, 24 November, Friday

    Time Temperature Precipitation Wind Pressure Humidity
    00:00 +19°C° 0 mm 1 mps 595 mmHg 74%
    01:00 +19°C° 0 mm 1 mps 595 mmHg 75%
    02:00 +19°C° 0 mm 1 mps 595 mmHg 75%
    03:00 +18°C° 0 mm 1 mps 595 mmHg 76%
    04:00 +18°C° 0 mm 1 mps 595 mmHg 77%
    05:00 +18°C° 0 mm 1 mps 595 mmHg 78%
    06:00 +20°C° 0 mm 1 mps 596 mmHg 71%
    07:00 +21°C° 0 mm 1 mps 597 mmHg 64%
    08:00 +23°C° 0 mm 1 mps 598 mmHg 57%
    09:00 +24°C° 0 mm 2 mps 598 mmHg 53%
    10:00 +26°C° 0 mm 2 mps 599 mmHg 48%
    11:00 +27°C° 0 mm 3 mps 599 mmHg 44%
    12:00 +27°C° 0.2 mm 4 mps 598 mmHg 44%
    13:00 +28°C° 0.2 mm 4 mps 598 mmHg 44%
    14:00 +28°C° 0.2 mm 4 mps 597 mmHg 44%
    15:00 +27°C° 0.6 mm 4 mps 597 mmHg 45%
    16:00 +27°C° 0.6 mm 5 mps 596 mmHg 47%
    17:00 +26°C° 0.6 mm 5 mps 596 mmHg 48%
    18:00 +25°C° 0.2 mm 4 mps 596 mmHg 54%
    19:00 +22°C° 0.2 mm 3 mps 596 mmHg 61%
    20:00 +21°C° 0.2 mm 2 mps 596 mmHg 67%
    21:00 +20°C° 0.3 mm 2 mps 596 mmHg 72%
    22:00 +21°C° 0.3 mm 1 mps 597 mmHg 76%
    23:00 +20°C° 0.3 mm 1 mps 597 mmHg 81%

    Tomorrow, 25 November, Saturday

    Time Temperature Precipitation Wind Pressure Humidity
    00:00 +20°C° 0.2 mm 1 mps 597 mmHg 83%
    01:00 +20°C° 0.2 mm 1 mps 596 mmHg 85%
    02:00 +20°C° 0.2 mm 1 mps 596 mmHg 87%
    03:00 +19°C° 0.1 mm 1 mps 596 mmHg 87%
    04:00 +19°C° 0.1 mm 1 mps 595 mmHg 87%
    05:00 +19°C° 0.1 mm 1 mps 595 mmHg 87%
    06:00 +20°C° 0.1 mm 1 mps 596 mmHg 82%
    07:00 +21°C° 0.1 mm 1 mps 597 mmHg 78%
    08:00 +22°C° 0.1 mm 1 mps 598 mmHg 73%
    09:00 +21°C° 0.3 mm 2 mps 598 mmHg 73%
    10:00 +23°C° 0.3 mm 2 mps 598 mmHg 73%
    11:00 +22°C° 0.3 mm 3 mps 598 mmHg 73%
    12:00 +22°C° 0.4 mm 3 mps 598 mmHg 75%
    13:00 +22°C° 0.4 mm 3 mps 597 mmHg 77%
    14:00 +22°C° 0.4 mm 4 mps 596 mmHg 80%
    15:00 +21°C° 0.3 mm 4 mps 596 mmHg 81%
    16:00 +21°C° 0.3 mm 4 mps 595 mmHg 82%
    17:00 +20°C° 0.3 mm 3 mps 595 mmHg 83%
    18:00 +20°C° 0.4 mm 3 mps 596 mmHg 86%
    19:00 +19°C° 0.4 mm 3 mps 596 mmHg 88%
    20:00 +18°C° 0.4 mm 3 mps 597 mmHg 90%
    21:00 +18°C° 0.4 mm 3 mps 597 mmHg 91%
    22:00 +18°C° 0.4 mm 2 mps 597 mmHg 92%
    23:00 +17°C° 0.4 mm 2 mps 598 mmHg 93%

    Day after tomorrow, 26 November, Sunday

    Time Temperature Precipitation Wind Pressure Humidity
    00:00 +17°C° 0.3 mm 2 mps 597 mmHg 93%
    01:00 +18°C° 0.3 mm 1 mps 597 mmHg 93%
    02:00 +18°C° 0.3 mm 1 mps 596 mmHg 94%
    03:00 +18°C° 0.2 mm 1 mps 596 mmHg 94%
    04:00 +18°C° 0.2 mm 1 mps 596 mmHg 94%
    05:00 +16°C° 0.2 mm 1 mps 596 mmHg 95%
    06:00 +18°C° 0.1 mm 1 mps 596 mmHg 93%
    07:00 +18°C° 0.1 mm 1 mps 596 mmHg 92%
    08:00 +17°C° 0.1 mm 2 mps 597 mmHg 90%
    09:00 +19°C° 0.1 mm 2 mps 597 mmHg 84%
    10:00 +20°C° 0.1 mm 2 mps 597 mmHg 77%
    11:00 +21°C° 0.1 mm 2 mps 597 mmHg 71%
    12:00 +22°C° 0.1 mm 3 mps 596 mmHg 70%
    13:00 +22°C° 0.1 mm 3 mps 595 mmHg 68%
    14:00 +22°C° 0.1 mm 3 mps 594 mmHg 67%
    15:00 +22°C° 0.1 mm 3 mps 594 mmHg 68%
    16:00 +22°C° 0.1 mm 3 mps 593 mmHg 68%
    17:00 +22°C° 0.1 mm 3 mps 593 mmHg 69%
    18:00 +21°C° 0.4 mm 3 mps 593 mmHg 74%
    19:00 +20°C° 0.4 mm 2 mps 594 mmHg 80%
    20:00 +19°C° 0.4 mm 2 mps 594 mmHg 86%
    21:00 +19°C° 0.5 mm 2 mps 595 mmHg 87%
    22:00 +20°C° 0.5 mm 1 mps 595 mmHg 89%
    23:00 +19°C° 0.5 mm 1 mps 595 mmHg 91%

    27 November, Monday

    Time Temperature Precipitation Wind Pressure Humidity
    00:00 +19°C° 0.1 mm 1 mps 595 mmHg 91%
    01:00 +19°C° 0.1 mm 1 mps 594 mmHg 92%
    02:00 +17°C° 0.1 mm 0 mps 594 mmHg 92%
    03:00 +19°C° 0.2 mm 1 mps 594 mmHg 92%
    04:00 +18°C° 0.2 mm 1 mps 595 mmHg 93%
    05:00 +18°C° 0.2 mm 1 mps 595 mmHg 93%
    06:00 +19°C° 0.2 mm 1 mps 596 mmHg 91%
    07:00 +19°C° 0.2 mm 1 mps 596 mmHg 89%
    08:00 +19°C° 0.2 mm 1 mps 597 mmHg 87%
    09:00 +19°C° 0.5 mm 2 mps 597 mmHg 83%
    10:00 +20°C° 0.5 mm 2 mps 597 mmHg 79%
    11:00 +21°C° 0.5 mm 2 mps 598 mmHg 75%
    12:00 +21°C° 0.9 mm 3 mps 597 mmHg 75%
    13:00 +22°C° 0.9 mm 4 mps 597 mmHg 76%
    14:00 +22°C° 0.9 mm 4 mps 597 mmHg 76%
    15:00 +21°C° 0.8 mm 4 mps 597 mmHg 80%
    16:00 +20°C° 0.8 mm 4 mps 596 mmHg 83%
    17:00 +19°C° 0.8 mm 4 mps 596 mmHg 86%
    18:00 +19°C° 0.6 mm 4 mps 597 mmHg 88%
    19:00 +18°C° 0.6 mm 4 mps 597 mmHg 89%
    20:00 +17°C° 0.6 mm 3 mps 598 mmHg 90%
    21:00 +17°C° 0.2 mm 3 mps 598 mmHg 90%
    22:00 +17°C° 0.2 mm 3 mps 599 mmHg 89%
    23:00 +17°C° 0.2 mm 2 mps 599 mmHg 88%

    28 November, Tuesday

    Time Temperature Precipitation Wind Pressure Humidity
    00:00 +17°C° 0.1 mm 3 mps 598 mmHg 89%
    01:00 +17°C° 0.1 mm 3 mps 598 mmHg 89%
    02:00 +16°C° 0.1 mm 3 mps 598 mmHg 89%
    03:00 +16°C° 0.5 mm 3 mps 598 mmHg 90%
    04:00 +16°C° 0.5 mm 3 mps 599 mmHg 90%
    05:00 +16°C° 0.5 mm 3 mps 599 mmHg 91%
    06:00 +16°C° 0.2 mm 3 mps 600 mmHg 89%
    07:00 +17°C° 0.2 mm 2 mps 600 mmHg 87%
    08:00 +17°C° 0.2 mm 2 mps 601 mmHg 85%
    09:00 +18°C° 0.3 mm 2 mps 601 mmHg 79%
    10:00 +20°C° 0.3 mm 3 mps 601 mmHg 74%
    11:00 +21°C° 0.3 mm 3 mps 601 mmHg 68%
    12:00 +21°C° 0.4 mm 3 mps 601 mmHg 67%
    13:00 +21°C° 0.4 mm 3 mps 600 mmHg 66%
    14:00 +22°C° 0.4 mm 3 mps 599 mmHg 65%
    15:00 +21°C° 0.1 mm 3 mps 599 mmHg 67%
    16:00 +21°C° 0.1 mm 3 mps 598 mmHg 69%
    17:00 +21°C° 0.1 mm 3 mps 598 mmHg 70%
    18:00 +20°C° 0.2 mm 3 mps 598 mmHg 74%
    19:00 +19°C° 0.2 mm 2 mps 598 mmHg 78%
    20:00 +18°C° 0.2 mm 2 mps 599 mmHg 81%
    21:00 +18°C° 0.1 mm 2 mps 599 mmHg 83%
    22:00 +19°C° 0.1 mm 1 mps 599 mmHg 84%
    23:00 +18°C° 0.1 mm 1 mps 599 mmHg 85%

    29 November, Wednesday

    Time Temperature Precipitation Wind Pressure Humidity
    00:00 +18°C° 0 mm 1 mps 598 mmHg 85%
    01:00 +18°C° 0 mm 1 mps 598 mmHg 85%
    02:00 +18°C° 0 mm 1 mps 597 mmHg 85%
    03:00 +18°C° 0 mm 1 mps 597 mmHg 86%
    04:00 +18°C° 0 mm 1 mps 597 mmHg 86%
    05:00 +16°C° 0 mm 1 mps 597 mmHg 87%
    06:00 +18°C° 0 mm 1 mps 598 mmHg 81%
    07:00 +20°C° 0 mm 1 mps 599 mmHg 75%
    08:00 +21°C° 0 mm 1 mps 599 mmHg 69%
    09:00 +22°C° 0 mm 1 mps 600 mmHg 63%
    10:00 +24°C° 0 mm 2 mps 600 mmHg 58%
    11:00 +25°C° 0 mm 3 mps 600 mmHg 52%
    12:00 +25°C° 0 mm 3 mps 599 mmHg 51%
    13:00 +26°C° 0 mm 3 mps 598 mmHg 51%
    14:00 +26°C° 0 mm 4 mps 598 mmHg 50%
    15:00 +25°C° 0.1 mm 4 mps 597 mmHg 54%
    16:00 +23°C° 0.1 mm 4 mps 597 mmHg 58%
    17:00 +23°C° 0.1 mm 4 mps 596 mmHg 61%
    18:00 +22°C° 0.1 mm 3 mps 596 mmHg 66%
    19:00 +21°C° 0.1 mm 2 mps 596 mmHg 71%
    20:00 +20°C° 0.1 mm 2 mps 596 mmHg 76%
    21:00 +19°C° 0.1 mm 2 mps 596 mmHg 78%
    22:00 +20°C° 0.1 mm 1 mps 596 mmHg 80%
    23:00 +20°C° 0.1 mm 1 mps 596 mmHg 81%
    Show more